Location: Cherry Springs State Park
(41.6616°N, 77.8240°W)
Time: 12:18:25
(UTC-04:00)

Amateur Radio Satellites - All Passes

Search period start: 26 May 2016 11:48
Search period end: 27 May 2016 11:48
Location: Cherry Springs State Park, 41.6616°N, 77.8240°W

Satellite Date Start Highest point End Downlink Frequencies (MHz)
Time Altitude Azimuth
GONETS M04 26 May 11:52:29 11:58:03 19° 282° (WNW) 12:03:37
Oscar 11 26 May 11:57:28 11:59:44 14° 297° (WNW) 12:01:59 145.826/435.025
PCSat 26 May 12:04:18 12:08:48 26° 312° (NW) 12:13:21 145.827
BUGSAT 1 26 May 12:06:33 12:10:39 54° 73° (ENE) 12:14:45 437.445
ZACube-1 26 May 12:09:23 12:10:41 11° 297° (WNW) 12:12:00 437.345
CUBEBUG 1 26 May 12:10:10 12:13:49 25° 95° (E) 12:17:25 437.445
VELOX 1 26 May 12:12:58 12:16:43 26° 96° (E) 12:20:25 145.980
DX 1 26 May 12:13:10 12:16:33 22° 95° (E) 12:19:54 434.975-435.025
POPSAT HIP 1 26 May 12:18:23 12:22:28 46° 261° (W) 12:26:34 437.405
QB50P1 26 May 12:18:57 12:23:01 45° 261° (W) 12:27:06 145.935-145.965
BEESAT 3 26 May 12:19:57 12:23:49 61° 119° (ESE) 12:27:44 437.485
QB50P2 26 May 12:20:47 12:24:48 40° 261° (W) 12:28:49 145.880/145.840
POLYITAN 1 26 May 12:23:16 12:27:15 39° 262° (W) 12:31:15 437.675
HUMSAT D 26 May 12:29:08 12:32:28 24° 292° (WNW) 12:35:50 437.325/437.525
DANDE 26 May 12:32:25 12:37:15 37° 87° (E) 12:43:27 436.750
NANOSAT C BR1 26 May 12:38:46 12:42:26 29° 264° (W) 12:46:08 145.865
50 SAT 26 May 12:38:58 12:42:40 60° 102° (ESE) 12:46:20 437.505
SPROUT 26 May 12:44:15 12:47:38 23° 94° (E) 12:51:00 437.525
AISAT 26 May 12:48:22 12:52:48 68° 102° (ESE) 12:57:10 437.250
CUSAT 1 26 May 12:50:54 12:57:03 76° 282° (WNW) 13:04:43 437.405
Cosmos 2499 26 May 12:51:15 12:54:23 12° 286° (WNW) 12:57:33 435.465 / 435.565
Oscar 19 26 May 12:51:45 12:56:06 28° 66° (ENE) 13:00:28 437.125/150
Gurwin Techsat 1B 26 May 13:03:58 13:07:08 16° 60° (ENE) 13:10:19 435.225
UKube-1 26 May 13:04:33 13:08:52 65° 101° (E) 13:13:09 .
TISAT 1 26 May 13:15:05 13:17:04 13° 91° (E) 13:19:03 437.305
BEESAT 2 26 May 13:19:52 13:23:45 52° 306° (NW) 13:27:40 435.950
ESTCUBE 1 26 May 13:20:42 13:24:57 39° 290° (WNW) 13:29:10 437.505/2401.250
DUCHIFAT 1 26 May 13:20:46 13:22:07 11° 270° (W) 13:23:29 145.980
JAS-2 26 May 13:30:35 13:37:50 76° 258° (WSW) 13:45:43 435.910
ITAMSAT 1 26 May 13:33:11 13:34:52 12° 57° (ENE) 13:36:34 435.822/435.867
AIST 2 26 May 13:41:01 13:43:33 16° 110° (ESE) 13:46:05 435.215
BUGSAT 1 26 May 13:44:26 13:46:20 13° 269° (W) 13:48:15 437.445
CUBEBUG 1 26 May 13:46:16 13:50:04 29° 291° (WNW) 13:53:50 437.445
DX 1 26 May 13:48:52 13:52:48 34° 291° (WNW) 13:56:42 434.975-435.025
VELOX 1 26 May 13:49:19 13:53:08 29° 292° (WNW) 13:56:56 145.980
AO-7 26 May 13:54:08 13:59:14 18° 48° (NE) 14:04:20 29.400- 29.500
BEESAT 3 26 May 13:59:29 14:01:54 16° 318° (NW) 14:04:20 437.485
DANDE 26 May 14:15:11 14:20:08 34° 293° (WNW) 14:26:25 436.750
50 SAT 26 May 14:15:39 14:15:52 10° 297° (WNW) 14:16:05 437.505
SPROUT 26 May 14:19:51 14:23:37 30° 290° (WNW) 14:27:20 437.525
AISAT 26 May 14:26:48 14:28:42 13° 299° (WNW) 14:30:36 437.250
Oscar 19 26 May 14:30:27 14:35:15 37° 263° (W) 14:40:04 437.125/150
CUSAT 1 26 May 14:36:59 14:40:47 15° 304° (NW) 14:44:55 437.405
Gurwin Techsat 1B 26 May 14:41:11 14:46:29 71° 258° (WSW) 14:51:48 435.225
UKube-1 26 May 14:42:30 14:44:23 13° 298° (WNW) 14:46:14 .
TISAT 1 26 May 14:48:59 14:53:02 51° 287° (WNW) 14:57:03 437.305
SWISSCUBE 26 May 14:50:18 14:54:34 31° 97° (E) 14:58:48 437.505
AO-85 26 May 14:53:12 14:57:20 28° 45° (NE) 15:01:10 145.980
ITUPSAT 1 26 May 14:55:40 14:59:57 31° 97° (E) 15:04:12 437.325
Cosmos 2491 26 May 15:07:54 15:16:05 41° 72° (ENE) 15:24:10 435.465 / 435.565
ITAMSAT 1 26 May 15:08:21 15:13:30 84° 76° (ENE) 15:18:43 435.822/435.867
YUBILEINY 26 May 15:12:53 15:17:42 16° 76° (ENE) 15:22:31 435.215
AIST 2 26 May 15:17:38 15:21:38 49° 307° (NW) 15:25:40 435.215
BEESAT 26 May 15:19:53 15:24:36 56° 101° (E) 15:29:18 436.000
JAS-2 26 May 15:20:40 15:24:08 14° 277° (W) 15:27:42 435.910
AO-7 26 May 15:42:23 15:50:38 75° 68° (ENE) 15:58:56 29.400- 29.500
RS-15 26 May 16:12:16 16:19:12 19° 97° (E) 16:26:18 29.354- 29.394
SWISSCUBE 26 May 16:28:10 16:32:16 29° 293° (WNW) 16:36:22 437.505
ITUPSAT 1 26 May 16:33:35 16:37:42 29° 293° (WNW) 16:41:47 437.325
AO-85 26 May 16:33:41 16:37:51 34° 246° (WSW) 16:41:41 145.980
KKS-1 26 May 16:37:23 16:41:38 44° 99° (E) 16:45:51 437.445
MOZHAYETS 4 26 May 16:43:01 16:47:22 39° 98° (E) 16:51:43
BRITE-PL 26 May 16:50:29 16:51:55 11° 57° (ENE) 16:53:22 437.365/2234.400
ITAMSAT 1 26 May 16:52:04 16:53:37 11° 271° (W) 16:55:11 435.822/435.867
BEESAT 26 May 16:58:53 17:01:56 17° 297° (WNW) 17:04:59 436.000
HORYU 2 26 May 17:01:58 17:06:24 77° 74° (ENE) 17:10:49 437.375
Cosmos 2504 26 May 17:03:25 17:08:28 21° 80° (E) 17:13:42 435.465 / 435.565
YUBILEINY 26 May 17:04:24 17:13:06 85° 95° (E) 17:21:50 435.215
Cosmos 2491 26 May 17:04:49 17:12:56 44° 273° (W) 17:20:59 435.465 / 435.565
NOAA 18 26 May 17:16:04 17:20:04 21° 62° (ENE) 17:24:03 137.9125
STARS 26 May 17:16:36 17:20:57 61° 102° (ESE) 17:25:15 437.465
NOAA 15 26 May 17:27:21 17:31:52 29° 66° (ENE) 17:36:25 137.62
Cubesat XI-IV 26 May 17:28:18 17:32:10 21° 62° (ENE) 17:36:01 437.490
AO-7 26 May 17:37:49 17:44:07 24° 267° (W) 17:50:29 29.400- 29.500
CUBESAT XI-V 26 May 18:04:54 18:09:12 33° 97° (E) 18:13:25 437.345
CUTE-I 26 May 18:13:26 18:18:33 51° 71° (ENE) 18:23:41 437.470
KKS-1 26 May 18:14:51 18:17:52 18° 296° (WNW) 18:20:52 437.445
DOVE 4 26 May 18:15:25 18:18:16 15° 62° (ENE) 18:21:03 437.250
RS-15 26 May 18:18:12 18:29:29 80° 118° (ESE) 18:41:28 29.354- 29.394
MOZHAYETS 4 26 May 18:20:47 18:24:17 22° 294° (WNW) 18:27:46
BRITE-PL 26 May 18:23:45 18:29:20 70° 74° (ENE) 18:35:02 437.365/2234.400
HO-68 26 May 18:29:47 18:33:35 15° 52° (NE) 18:37:23 435.675
LilacSat-2 26 May 18:49:22 18:53:10 74° 258° (WSW) 18:56:58 437.200
Cosmos 2504 26 May 18:53:48 19:00:57 68° 280° (W) 19:08:33 435.465 / 435.565
STARS 26 May 18:54:39 18:56:48 14° 298° (WNW) 18:58:57 437.465
NOAA 18 26 May 18:54:57 19:00:18 56° 259° (WSW) 19:05:40 137.9125
GOMX 1 26 May 18:54:58 19:00:25 68° 75° (ENE) 19:05:48 467.674
CINEMA 3 26 May 18:57:20 18:57:58 10° 61° (ENE) 18:58:35 145.822/145.860
YUBILEINY 26 May 19:04:53 19:11:03 21° 297° (WNW) 19:17:14 435.215
NOAA 15 26 May 19:06:38 19:11:30 37° 263° (W) 19:16:25 137.62
Cubesat XI-IV 26 May 19:06:39 19:11:50 54° 260° (W) 19:17:02 437.490
PCSat 26 May 19:07:30 19:12:41 44° 54° (NE) 19:17:51 145.827
CANX-2 26 May 19:14:06 19:16:22 14° 64° (ENE) 19:18:38 2200.000
SEEDS 26 May 19:20:50 19:21:37 10° 62° (ENE) 19:22:24 437.485
CUTE 1.7 + AOD 2 26 May 19:40:19 19:43:40 24° 68° (ENE) 19:47:03 437.475
CUBESAT XI-V 26 May 19:42:31 19:46:25 26° 293° (WNW) 19:50:16 437.345
DOVE 4 26 May 19:50:07 19:55:23 75° 258° (WSW) 20:00:28 437.250
AUBIESAT-1 26 May 19:51:08 19:55:16 63° 69° (ENE) 19:59:06 437.475
CUBEBUG 2 26 May 19:53:46 19:55:20 12° 63° (ENE) 19:56:54 437.445
CUTE-I 26 May 19:55:00 19:58:53 20° 267° (W) 20:02:46 437.470
M-CUBED/EXP-1 PRIME 26 May 19:56:38 20:00:54 90° 75° (ENE) 20:04:52 437.505
O/OREOS (USA 219) 26 May 19:58:39 20:03:08 66° 66° (ENE) 20:07:33 437.305
BEESAT 2 26 May 20:01:25 20:03:12 13° 39° (NE) 20:04:59 435.950
BRITE-PL 26 May 20:04:42 20:08:17 17° 271° (W) 20:11:54 437.365/2234.400
COMPASS 1 26 May 20:06:17 20:09:36 23° 68° (ENE) 20:12:55 437.405
AAUSAT CUBESAT 2 26 May 20:10:12 20:13:18 21° 67° (ENE) 20:16:26 437.432
HO-68 26 May 20:13:00 20:20:07 75° 71° (ENE) 20:27:15 435.675
UWE-3 26 May 20:23:29 20:26:14 17° 66° (ENE) 20:28:56 435.000/436.395/437.385
CINEMA 3 26 May 20:29:39 20:34:27 90° 43° (NE) 20:39:03 145.822/145.860
FUNcube-1 26 May 20:31:48 20:33:40 13° 63° (ENE) 20:35:31 145.935
STRAND 1 26 May 20:31:50 20:37:00 79° 104° (ESE) 20:42:09 437.568
RS-15 26 May 20:32:45 20:43:16 38° 325° (NW) 20:54:20 29.354- 29.394
GOMX 1 26 May 20:35:30 20:38:54 17° 270° (W) 20:42:16 467.674
BEESAT 3 26 May 20:37:08 20:40:51 38° 52° (NE) 20:44:32 437.485
CANX-2 26 May 20:47:41 20:51:47 52° 260° (W) 20:55:55 2200.000
PCSat 26 May 20:51:20 20:55:51 27° 252° (WSW) 21:00:21 145.827
DELFI C3 26 May 20:51:48 20:52:52 11° 63° (ENE) 20:53:58 145.870
SEEDS 26 May 20:52:33 20:56:42 74° 259° (W) 21:00:54 437.485
Cosmos 2504 26 May 20:53:43 20:56:05 12° 304° (WNW) 20:58:29 435.465 / 435.565
GONETS M04 26 May 21:01:40 21:07:28 20° 78° (ENE) 21:13:13
Oscar 11 26 May 21:14:34 21:18:38 44° 72° (ENE) 21:22:44 145.826/435.025
CUTE 1.7 + AOD 2 26 May 21:15:43 21:19:22 29° 264° (W) 21:23:05 437.475
ZACube-1 26 May 21:26:36 21:30:44 53° 74° (ENE) 21:34:49 437.345
CUBEBUG 2 26 May 21:27:03 21:31:27 69° 259° (W) 21:35:44 437.445
AUBIESAT-1 26 May 21:28:58 21:29:59 11° 263° (W) 21:30:59 437.475
ISS 26 May 21:30:42 21:33:05 19° 133° (SE) 21:35:29 145.825
BEESAT 2 26 May 21:37:37 21:41:37 86° 238° (WSW) 21:45:36 435.950
O/OREOS (USA 219) 26 May 21:40:24 21:41:54 12° 263° (W) 21:43:24 437.305
COMPASS 1 26 May 21:41:26 21:45:02 28° 264° (W) 21:48:39 437.405
Cosmos 2499 26 May 21:41:55 21:46:24 18° 78° (ENE) 21:51:04 435.465 / 435.565
AIST 1 26 May 21:42:07 21:46:25 58° 94° (E) 21:50:47
AAUSAT CUBESAT 2 26 May 21:44:54 21:48:36 32° 264° (W) 21:52:21 437.432
CUSAT 1 26 May 21:45:23 21:50:29 18° 58° (ENE) 21:55:09 437.405
HUMSAT D 26 May 21:45:24 21:48:25 20° 67° (ENE) 21:51:27 437.325/437.525
PRISM 26 May 21:49:38 21:53:50 80° 283° (WNW) 21:57:59 437.425
UWE-3 26 May 21:58:14 22:02:22 44° 261° (W) 22:06:26 435.000/436.395/437.385
AIST 2 26 May 22:01:21 22:03:48 15° 41° (NE) 22:06:14 435.215
HO-68 26 May 22:03:27 22:08:28 20° 269° (W) 22:13:32 435.675
FUNcube-1 26 May 22:05:16 22:09:26 59° 259° (W) 22:13:34 145.935
STRAND 1 26 May 22:12:53 22:15:30 14° 300° (WNW) 22:18:06 437.568
BEESAT 3 26 May 22:15:27 22:18:17 19° 248° (WSW) 22:21:06 437.485
DELFI C3 26 May 22:23:17 22:27:12 63° 259° (W) 22:31:10 145.870
UNISAT 6 26 May 22:31:25 22:33:51 15° 92° (E) 22:36:17 437.425
TIGRISAT 26 May 22:39:01 22:41:48 17° 93° (E) 22:44:36 435.000
ESTCUBE 1 26 May 22:44:38 22:47:54 20° 65° (ENE) 22:51:11 437.505/2401.250
RS-15 26 May 22:51:37 23:00:37 23° 359° (N) 23:09:51 29.354- 29.394
Oscar 11 26 May 22:52:19 22:55:00 16° 268° (W) 22:57:40 145.826/435.025
GONETS M04 26 May 22:54:17 23:03:07 84° 278° (W) 23:11:56
PHONESAT 2.4 26 May 23:00:21 23:02:58 24° 156° (SSE) 23:05:36 2401.200-2431.200
ZACube-1 26 May 23:05:22 23:07:19 13° 269° (W) 23:09:17 437.345
ISS 26 May 23:06:06 23:09:17 50° 329° (NNW) 23:12:29 145.825
CUBEBUG 1 26 May 23:06:26 23:09:55 23° 67° (ENE) 23:13:24 437.445
DX 1 26 May 23:09:05 23:12:20 21° 66° (ENE) 23:15:36 434.975-435.025
DANDE 26 May 23:09:56 23:17:47 41° 70° (ENE) 23:25:04 436.750
VELOX 1 26 May 23:10:32 23:14:11 25° 67° (ENE) 23:17:50 145.980
ANTELSAT 26 May 23:11:22 23:15:25 40° 98° (E) 23:19:31 437.575/2403.000
50 SAT 26 May 23:17:41 23:20:47 27° 70° (ENE) 23:23:55 437.505
HUMSAT D 26 May 23:20:12 23:23:51 32° 263° (W) 23:27:32 437.325/437.525
AIST 1 26 May 23:22:25 23:24:26 13° 292° (WNW) 23:26:28
CUSAT 1 26 May 23:26:02 23:33:58 86° 80° (E) 23:40:32 437.405
Cosmos 2499 26 May 23:31:09 23:38:22 80° 279° (W) 23:46:09 435.465 / 435.565
SPROUT 26 May 23:38:27 23:41:29 19° 66° (ENE) 23:44:32 437.525
AIST 2 26 May 23:38:37 23:42:46 72° 240° (WSW) 23:46:52 435.215
AISAT 26 May 23:45:36 23:50:00 61° 73° (ENE) 23:54:25 437.250
UKube-1 26 May 23:59:00 00:03:13 56° 73° (ENE) 00:07:29 .
POPSAT HIP 1 27 May 00:03:12 00:06:44 26° 96° (E) 00:10:15 437.405
QB50P1 27 May 00:03:39 00:07:14 27° 96° (E) 00:10:48 145.935-145.965
QB50P2 27 May 00:05:31 00:09:14 29° 96° (E) 00:12:55 145.880/145.840
UNISAT 6 27 May 00:06:40 00:10:49 48° 287° (WNW) 00:15:00 437.425
POLYITAN 1 27 May 00:07:57 00:11:41 30° 97° (E) 00:15:23 437.675
TISAT 1 27 May 00:08:03 00:09:26 11° 62° (ENE) 00:10:48 437.305
TIGRISAT 27 May 00:14:39 00:18:41 42° 288° (WNW) 00:22:46 435.000
ESTCUBE 1 27 May 00:20:09 00:24:24 41° 262° (W) 00:28:43 437.505/2401.250
NANOSAT C BR1 27 May 00:22:22 00:26:21 41° 99° (E) 00:30:18 145.865
PHONESAT 2.4 27 May 00:36:21 00:39:27 64° 172° (S) 00:42:33 2401.200-2431.200
CUBEBUG 1 27 May 00:41:58 00:46:01 34° 263° (W) 00:50:04 437.445
JAS-2 27 May 00:42:30 00:47:22 19° 86° (E) 00:51:55 435.910
ISS 27 May 00:44:06 00:46:18 17° 349° (NNW) 00:48:31 145.825
DX 1 27 May 00:44:12 00:48:17 37° 262° (W) 00:52:23 434.975-435.025
VELOX 1 27 May 00:46:32 00:50:30 31° 263° (W) 00:54:31 145.980
ANTELSAT 27 May 00:48:52 00:51:52 19° 294° (WNW) 00:54:53 437.575/2403.000
50 SAT 27 May 00:51:58 00:54:33 18° 266° (W) 00:57:08 437.505
DANDE 27 May 00:52:47 01:00:46 49° 270° (W) 01:08:04 436.750
GONETS M04 27 May 00:55:45 01:01:21 18° 299° (WNW) 01:06:57
DUCHIFAT 1 27 May 01:01:18 01:05:29 74° 285° (WNW) 01:09:38 145.980
RS-15 27 May 01:07:04 01:18:08 37° 34° (NE) 01:29:14 29.354- 29.394
CUSAT 1 27 May 01:10:02 01:14:49 18° 282° (WNW) 01:19:10 437.405
SPROUT 27 May 01:13:08 01:17:09 39° 262° (W) 01:21:12 437.525
SO-50 27 May 01:20:41 01:25:36 84° 121° (ESE) 01:30:32 436.795
BUGSAT 1 27 May 01:23:22 01:27:26 89° 284° (WNW) 01:31:26 437.445
AISAT 27 May 01:24:52 01:26:51 13° 270° (W) 01:28:51 437.250
Cosmos 2499 27 May 01:29:10 01:32:59 14° 301° (WNW) 01:36:56 435.465 / 435.565
UKube-1 27 May 01:37:32 01:39:36 13° 269° (W) 01:41:41 .
POPSAT HIP 1 27 May 01:38:57 01:42:27 26° 292° (WNW) 01:45:57 437.405
QB50P1 27 May 01:39:28 01:42:56 25° 292° (WNW) 01:46:24 145.935-145.965
TISAT 1 27 May 01:40:17 01:44:30 70° 258° (WSW) 01:48:44 437.305
QB50P2 27 May 01:41:32 01:44:54 23° 293° (WNW) 01:48:14 145.880/145.840
POLYITAN 1 27 May 01:44:01 01:47:20 23° 293° (WNW) 01:50:38 437.675
SWISSCUBE 27 May 01:56:54 02:01:14 37° 69° (ENE) 02:05:36 437.505
NANOSAT C BR1 27 May 01:59:00 02:01:45 17° 295° (WNW) 02:04:31 145.865
ITUPSAT 1 27 May 02:02:33 02:06:54 37° 69° (ENE) 02:11:18 437.325
PHONESAT 2.4 27 May 02:13:01 02:16:07 62° 189° (S) 02:19:13 2401.200-2431.200
ISS 27 May 02:21:37 02:23:42 16° 9° (N) 02:25:48 145.825
JAS-2 27 May 02:25:45 02:33:20 81° 286° (WNW) 02:40:04 435.910
BEESAT 27 May 02:26:17 02:30:59 66° 73° (ENE) 02:35:44 436.000
Oscar 19 27 May 02:41:15 02:46:26 76° 103° (ESE) 02:51:33 437.125/150
Gurwin Techsat 1B 27 May 02:57:14 03:02:20 45° 99° (E) 03:07:24 435.225
SO-50 27 May 03:03:26 03:06:43 17° 321° (NW) 03:10:00 436.795
YUBILEINY 27 May 03:14:28 03:22:42 43° 73° (ENE) 03:30:55 435.215
RS-15 27 May 03:19:51 03:32:14 85° 239° (WSW) 03:44:31 29.354- 29.394
ITAMSAT 1 27 May 03:21:21 03:25:52 29° 96° (E) 03:30:23 435.822/435.867
SWISSCUBE 27 May 03:35:19 03:39:07 23° 266° (W) 03:42:55 437.505
KKS-1 27 May 03:35:25 03:39:38 42° 71° (ENE) 03:43:52 437.445
ITUPSAT 1 27 May 03:41:03 03:44:50 23° 266° (W) 03:48:38 437.325
AO-7 27 May 03:44:49 03:51:11 23° 93° (E) 03:57:29 29.400- 29.500
MOZHAYETS 4 27 May 03:45:02 03:49:14 38° 70° (ENE) 03:53:28
PHONESAT 2.4 27 May 03:50:03 03:52:34 22° 205° (SSW) 03:55:06 2401.200-2431.200
ISS 27 May 03:57:40 04:00:48 41° 29° (NNE) 04:03:55 145.825
BEESAT 27 May 04:07:02 04:09:13 13° 270° (W) 04:11:25 436.000
Cosmos 2491 27 May 04:09:07 04:17:24 47° 88° (E) 04:25:40 435.465 / 435.565
JAS-2 27 May 04:12:30 04:17:03 17° 307° (NW) 04:21:22 435.910
STARS 27 May 04:13:09 04:17:27 55° 73° (ENE) 04:21:46 437.465
Oscar 19 27 May 04:22:21 04:25:05 15° 300° (WNW) 04:27:50 437.125/150
Gurwin Techsat 1B 27 May 04:37:47 04:42:00 24° 296° (WNW) 04:46:12 435.225
Cosmos 2504 27 May 04:44:41 04:52:42 46° 75° (ENE) 05:01:04 435.465 / 435.565
HORYU 2 27 May 04:54:11 04:56:33 14° 92° (E) 04:58:54 437.375
ITAMSAT 1 27 May 05:00:38 05:05:21 35° 292° (WNW) 05:10:03 435.822/435.867
CUBESAT XI-V 27 May 05:08:19 05:12:29 33° 69° (ENE) 05:16:42 437.345
YUBILEINY 27 May 05:11:24 05:19:26 43° 273° (W) 05:27:29 435.215
AO-85 27 May 05:11:43 05:11:55 10° 104° (ESE) 05:12:08 145.980
KKS-1 27 May 05:13:17 05:16:23 18° 267° (W) 05:19:30 437.445
MOZHAYETS 4 27 May 05:23:06 05:26:31 21° 267° (W) 05:29:58
RS-15 27 May 05:34:22 05:42:55 23° 261° (W) 05:51:28 29.354- 29.394
ISS 27 May 05:34:24 05:37:06 24° 225° (SW) 05:39:47 145.825
AO-7 27 May 05:36:18 05:44:40 76° 291° (WNW) 05:53:00 29.400- 29.500
STARS 27 May 05:51:53 05:54:08 14° 269° (W) 05:56:24 437.465
Cosmos 2491 27 May 06:06:12 06:14:19 40° 288° (WNW) 06:22:29 435.465 / 435.565
STRAND 1 27 May 06:11:35 06:14:26 15° 60° (ENE) 06:17:18 437.568
LilacSat-2 27 May 06:24:38 06:25:51 11° 91° (E) 06:27:03 437.200
HORYU 2 27 May 06:29:06 06:33:25 54° 288° (WNW) 06:37:45 437.375
BRITE-PL 27 May 06:30:03 06:33:57 22° 91° (E) 06:37:36 437.365/2234.400
CUTE-I 27 May 06:31:01 06:34:52 20° 92° (E) 06:38:44 437.470
Cosmos 2504 27 May 06:38:18 06:45:56 40° 273° (W) 06:53:54 435.465 / 435.565
CUBESAT XI-V 27 May 06:46:03 06:49:53 25° 266° (W) 06:53:46 437.345
AO-85 27 May 06:46:08 06:51:34 74° 120° (ESE) 06:56:56 145.980
GOMX 1 27 May 06:58:31 07:01:39 18° 90° (E) 07:04:39 467.674
NOAA 18 27 May 07:16:32 07:21:59 61° 102° (ESE) 07:27:24 137.9125
NOAA 15 27 May 07:20:57 07:26:18 82° 104° (ESE) 07:31:35 137.62
Cubesat XI-IV 27 May 07:23:25 07:28:43 60° 101° (ESE) 07:34:01 437.490
AO-7 27 May 07:30:52 07:36:07 19° 311° (NW) 07:41:22 29.400- 29.500
HO-68 27 May 07:43:32 07:46:19 12° 87° (E) 07:49:06 435.675
STRAND 1 27 May 07:47:55 07:52:59 72° 257° (WSW) 07:58:07 437.568
DOVE 4 27 May 07:49:55 07:53:39 27° 94° (E) 07:57:15 437.250
AIST 1 27 May 07:50:10 07:52:45 15° 70° (ENE) 07:55:17
LilacSat-2 27 May 07:56:46 08:00:25 48° 287° (WNW) 08:04:05 437.200
BRITE-PL 27 May 08:07:47 08:12:40 42° 290° (WNW) 08:17:09 437.365/2234.400
CUTE-I 27 May 08:10:01 08:15:14 53° 289° (WNW) 08:20:25 437.470
SO-50 27 May 08:13:11 08:15:40 14° 36° (NE) 08:18:06 436.795
CINEMA 3 27 May 08:25:14 08:28:10 18° 93° (E) 08:31:04 145.822/145.860
AO-85 27 May 08:28:28 08:32:37 22° 318° (NW) 08:36:40 145.980
CANX-2 27 May 08:32:44 08:36:19 25° 95° (E) 08:39:54 2200.000
GOMX 1 27 May 08:35:34 08:40:03 43° 289° (WNW) 08:44:14 467.674
SEEDS 27 May 08:37:05 08:40:02 18° 92° (E) 08:42:59 437.485
PRISM 27 May 08:38:51 08:42:58 74° 76° (ENE) 08:47:09 437.425
NOAA 18 27 May 08:58:19 09:02:08 20° 299° (WNW) 09:05:58 137.9125
CUTE 1.7 + AOD 2 27 May 08:59:43 09:03:49 44° 99° (E) 09:07:55 437.475
NOAA 15 27 May 09:02:38 09:05:21 14° 301° (WNW) 09:08:03 137.62
AUBIESAT-1 27 May 09:04:21 09:07:27 36° 104° (ESE) 09:10:32 437.475
GONETS M04 27 May 09:04:32 09:12:56 50° 75° (ENE) 09:21:16
Cubesat XI-IV 27 May 09:04:37 09:08:19 19° 298° (WNW) 09:12:01 437.490
M-CUBED/EXP-1 PRIME 27 May 09:10:28 09:13:42 57° 106° (ESE) 09:16:55 437.505
CUBEBUG 2 27 May 09:18:07 09:21:24 22° 95° (E) 09:24:41 437.445
Cosmos 2499 27 May 09:20:59 09:28:56 40° 73° (ENE) 09:37:06 435.465 / 435.565
COMPASS 1 27 May 09:23:24 09:27:25 41° 98° (E) 09:31:25 437.405
AIST 1 27 May 09:26:27 09:30:37 46° 267° (W) 09:34:45
AAUSAT CUBESAT 2 27 May 09:26:33 09:30:26 36° 97° (E) 09:34:19 437.432
DOVE 4 27 May 09:27:39 09:31:19 26° 292° (WNW) 09:34:49 437.250
HO-68 27 May 09:27:54 09:35:06 77° 105° (ESE) 09:42:17 435.675
UNISAT 6 27 May 09:31:05 09:33:27 14° 64° (ENE) 09:35:47 437.425
TIGRISAT 27 May 09:38:26 09:41:08 16° 65° (ENE) 09:43:48 435.000
UWE-3 27 May 09:47:26 09:51:12 32° 97° (E) 09:55:00 435.000/436.395/437.385
PCSat 27 May 09:49:29 09:54:25 37° 111° (ESE) 09:59:22 145.827
SO-50 27 May 09:52:15 09:56:59 77° 57° (ENE) 10:01:31 436.795
FUNcube-1 27 May 09:53:17 09:56:42 24° 95° (E) 10:00:07 145.935
CINEMA 3 27 May 10:01:39 10:05:27 34° 289° (WNW) 10:09:12 145.822/145.860
DELFI C3 27 May 10:01:47 10:04:20 16° 92° (E) 10:06:53 145.870
CANX-2 27 May 10:08:28 10:12:07 28° 291° (WNW) 10:15:47 2200.000
ANTELSAT 27 May 10:10:25 10:14:25 36° 71° (ENE) 10:18:22 437.575/2403.000
O/OREOS (USA 219) 27 May 10:10:48 10:15:21 76° 110° (ESE) 10:19:54 437.305
SEEDS 27 May 10:11:55 10:15:53 38° 288° (WNW) 10:19:50 437.485
CUTE 1.7 + AOD 2 27 May 10:36:33 10:39:19 17° 295° (WNW) 10:42:05 437.475
Oscar 11 27 May 10:37:11 10:41:33 90° 147° (SSE) 10:45:54 145.826/435.025
AUBIESAT-1 27 May 10:40:12 10:41:40 12° 300° (WNW) 10:43:08 437.475
CUSAT 1 27 May 10:48:56 10:52:20 15° 76° (ENE) 10:56:01 437.405
ZACube-1 27 May 10:50:30 10:54:41 72° 284° (WNW) 10:58:54 437.345
CUBEBUG 2 27 May 10:54:25 10:58:03 30° 290° (WNW) 11:01:42 437.445
POPSAT HIP 1 27 May 10:56:13 10:59:25 21° 67° (ENE) 11:02:37 437.405
QB50P1 27 May 10:56:36 10:59:51 22° 67° (ENE) 11:03:06 145.935-145.965
JAS-2 27 May 10:58:00 10:59:57 11° 48° (NE) 11:01:57 435.910
QB50P2 27 May 10:58:34 11:01:58 24° 68° (ENE) 11:05:23 145.880/145.840
COMPASS 1 27 May 10:59:52 11:02:39 17° 294° (WNW) 11:05:27 437.405
POLYITAN 1 27 May 11:01:00 11:04:25 24° 68° (ENE) 11:07:51 437.675
GONETS M04 27 May 11:01:48 11:09:27 36° 275° (W) 11:17:05
AAUSAT CUBESAT 2 27 May 11:02:39 11:05:41 20° 293° (WNW) 11:08:42 437.432
HUMSAT D 27 May 11:02:50 11:06:41 36° 97° (E) 11:10:33 437.325/437.525
UNISAT 6 27 May 11:05:27 11:09:44 54° 259° (W) 11:13:59 437.425
TIGRISAT 27 May 11:13:15 11:17:28 47° 261° (W) 11:21:38 435.000
Cosmos 2499 27 May 11:14:02 11:22:08 48° 271° (W) 11:30:29 435.465 / 435.565
NANOSAT C BR1 27 May 11:14:42 11:18:26 32° 70° (ENE) 11:22:12 145.865
HO-68 27 May 11:16:51 11:22:05 22° 303° (WNW) 11:27:19 435.675
UWE-3 27 May 11:24:21 11:27:30 21° 292° (WNW) 11:30:41 435.000/436.395/437.385
FUNcube-1 27 May 11:29:19 11:32:55 28° 290° (WNW) 11:36:33 145.935
BEESAT 2 27 May 11:31:18 11:33:37 15° 110° (ESE) 11:35:57 435.950
PCSat 27 May 11:32:55 11:37:49 34° 309° (NW) 11:42:45 145.827
SO-50 27 May 11:35:06 11:36:44 12° 253° (WSW) 11:38:21 436.795
DELFI C3 27 May 11:35:35 11:39:21 39° 288° (WNW) 11:43:07 145.870
AISAT 27 May 11:38:06 11:39:21 11° 89° (E) 11:40:36 437.250
